User: anonymous
Location: Fairmont
(43.6520°N, 94.4610°W)
Time: 01:43:59
(UTC-05:00)
Language:

Cosmos-2242 - Orbit

View from above orbital plane
View from above orbital plane
View from above satellite
View from above satellite

Ground track
Ground track

The orbit data is extracted from the following two-line orbital elements,

1 22626U 93024A   14205.39384883  .00000342  00000-0  36287-4 0  1513
2 22626 082.5254 319.0767 0020088 036.6511 323.6074 14.85944311148793
Epoch (UTC): 24 July 2014 09:27:08
Eccentricity: 0.0020088
inclination: 82.5254°
perigee height: 596 km
apogee height: 624 km
right ascension of ascending node: 319.0767°
argument of perigee: 36.6511°
revolutions per day: 14.85944311
mean anomaly at epoch: 323.6074°
orbit number at epoch: 14879

The dashed part of the orbit path shows where the satellite is in the earth's shadow,  

DLR